User: anonymous   Login
Location: Strawberry
(45.6646°N, 111.9596°W)
Time: 18:32:53
(UTC+00:00)
Language:

Explorer 11/Cluster Stage 4 - Orbit

View from above orbital plane
View from above orbital plane
View from above satellite
View from above satellite

Ground track
Ground track

The orbit data is extracted from the following two-line orbital elements,

1   107U 61013A   23336.03994391  .00005184  00000-0  65852-3 0  9991
2   107  28.7856 236.1315 0527490 151.8606 211.1544 14.13737778144163
Epoch (UTC): 02 December 2023 00:57:31
Eccentricity: 0.0527490
inclination: 28.7856°
perigee height: 465 km
apogee height: 1228 km
right ascension of ascending node: 236.1315°
argument of perigee: 151.8606°
revolutions per day: 14.13737778
mean anomaly at epoch: 211.1544°
orbit number at epoch: 14416

The dashed part of the orbit path shows where the satellite is in the earth's shadow,  

DLR